Theta_e
308 307 307 307 307 307 308 307 307 307 307 306 308 310 312 314 312 306 302 308 306 300 300 301 301 297 297 296 294 299 297 301 297 293 292 294 294 297 295 298 296 299 297 297 298 296 294 314 313 307 312 320 322 323
308 307 307 307 307 307 307 307 307 307 307 307 307 311 313 314 312 311 301 307 309 303 298 302 304 305 304 303 300 301 299 297 299 298 300 300 297 299 295 288 306 298 300 296 302 301 311 316 314 318 319 321 320 322
308 307 306 306 307 307 307 307 307 307 307 307 307 310 312 313 313 309 302 308 306 300 300 298 298 305 307 306 307 298 301 303 301 305 303 302 296 300 293 294 298 302 303 299 303 308 309 311 317 322 324 323 322 321
307 306 306 306 307 307 307 307 307 307 307 307 307 309 311 313 313 313 306 308 307 302 295 297 305 302 309 308 307 307 306 307 307 309 303 300 298 301 297 298 297 298 302 301 302 308 311 313 315 318 323 322 321 321
307 307 306 306 307 307 307 307 307 307 307 307 307 309 311 313 312 311 310 309 310 302 294 296 300 303 306 304 305 308 306 305 303 303 302 297 299 298 300 301 298 303 301 299 300 308 309 312 320 321 322 321 321 320
306 306 306 306 307 307 306 306 307 307 307 307 307 308 310 312 312 305 298 308 307 309 297 293 301 301 304 314 310 306 308 306 307 305 302 302 304 299 294 294 303 305 308 309 306 314 314 317 323 326 322 321 321 320
307 306 306 306 306 306 306 307 306 307 307 307 307 308 310 311 309 298 296 308 309 310 300 296 294 302 309 310 309 308 308 308 308 306 304 301 303 302 299 297 304 309 310 313 315 315 317 323 320 323 322 321 320 318
306 306 306 306 306 306 306 306 306 307 307 307 307 309 311 310 310 305 307 309 309 305 303 295 295 298 307 304 304 311 306 307 305 303 302 301 304 305 301 305 308 312 314 314 316 318 321 323 322 320 320 319 316 315
306 306 306 305 306 306 306 306 307 307 307 307 307 309 309 307 303 302 313 312 308 303 297 298 295 290 305 304 308 307 309 300 307 300 300 303 300 298 303 305 307 313 312 311 316 320 321 322 319 318 317 316 314 315
305 306 305 305 306 306 306 306 306 307 307 306 306 303 297 300 311 313 308 302 301 302 302 295 295 293 298 299 299 302 306 298 294 301 306 300 297 306 308 312 313 316 316 316 314 315 318 317 317 316 316 316 316 316
305 306 305 305 306 306 306 306 306 306 305 305 301 299 302 312 307 302 298 296 296 296 298 297 296 293 300 296 298 304 301 302 297 300 301 297 297 303 310 311 316 318 319 319 319 319 321 319 317 316 316 317 317 316
305 306 305 305 306 306 306 306 306 298 302 301 301 304 305 302 299 296 294 296 295 293 297 297 299 299 302 307 302 303 299 301 293 306 302 296 302 307 311 315 316 317 318 319 319 321 320 319 318 317 317 317 316 316
305 305 304 305 306 306 306 305 306 305 303 302 302 299 298 297 290 290 288 291 290 297 299 300 300 303 306 308 303 301 297 296 303 299 299 301 306 308 311 314 317 318 319 320 320 322 319 318 319 318 316 317 317 316
305 304 304 305 306 306 305 305 306 303 299 294 294 287 291 291 291 292 291 293 299 299 300 301 299 301 305 301 301 298 300 302 296 296 298 303 306 308 314 318 318 318 320 319 318 318 317 316 316 318 318 318 317 315
304 304 305 305 305 305 305 305 305 299 298 292 292 285 291 293 295 299 300 298 303 301 300 300 300 302 299 298 299 298 296 295 296 296 302 309 307 308 310 313 315 317 320 318 317 317 316 317 316 316 317 317 318 317
304 303 301 303 304 304 305 304 301 299 297 293 294 290 292 291 292 295 298 298 301 299 302 302 299 296 297 297 296 295 295 294 297 302 304 309 310 310 311 314 314 317 318 319 316 316 316 316 315 314 315 316 317 317
303 296 303 303 303 304 304 300 299 294 292 292 289 291 291 291 292 293 297 298 303 300 296 298 293 295 299 294 295 297 297 300 303 305 307 310 311 312 314 317 317 317 319 316 315 315 314 315 315 314 311 312 314 315
295 296 303 303 302 301 300 299 294 294 290 290 287 291 294 296 294 295 300 302 300 299 300 296 297 296 295 294 296 301 304 306 306 308 307 307 311 314 318 318 320 320 318 315 315 314 314 314 313 312 312 312 312 313
299 301 302 303 302 298 294 294 295 288 291 291 292 294 294 292 295 297 299 301 303 303 300 298 295 296 295 298 302 304 306 305 305 308 305 307 309 315 317 318 319 318 316 315 315 314 314 314 314 313 313 313 311 312
301 301 301 301 302 296 292 293 298 291 288 292 295 292 292 293 294 293 296 301 300 300 297 295 298 299 299 302 305 306 306 306 305 302 303 306 310 315 314 314 316 318 318 317 316 311 315 315 315 315 314 312 312 311
299 299 301 301 299 296 293 292 294 292 292 291 292 291 291 292 292 293 294 298 298 298 296 300 301 302 306 308 309 309 309 307 306 306 305 305 310 312 313 316 314 316 318 317 315 313 312 315 315 314 312 312 312 312
298 302 298 299 295 294 291 292 290 295 292 292 291 290 289 289 290 292 296 294 293 295 299 301 303 305 306 306 307 308 310 309 307 307 303 304 307 310 310 315 315 314 316 316 317 315 316 316 315 314 312 310 309 310
299 300 298 295 291 291 287 292 289 290 287 288 290 289 289 289 292 294 290 293 293 295 297 299 302 304 306 307 307 308 309 306 305 306 309 310 312 314 314 314 317 314 312 312 317 316 315 308 310 314 313 312 310 307
300 295 292 291 288 282 291 287 289 288 288 287 286 286 289 290 292 290 289 290 294 295 295 296 297 297 298 299 300 305 308 306 304 306 311 311 309 311 312 314 312 312 313 314 314 313 313 313 306 312 312 311 309 306
288 286 289 285 290 286 286 286 286 285 284 286 286 286 288 291 287 287 288 290 292 293 295 296 297 297 296 297 299 302 306 307 306 307 310 313 312 312 311 310 310 310 312 314 314 314 313 314 314 314 311 309 307 306
283 285 281 286 285 286 285 284 284 284 286 286 287 289 289 287 286 286 288 291 293 294 296 295 296 295 296 298 298 299 306 312 311 310 312 313 312 312 311 311 310 308 313 312 313 313 312 312 313 313 312 306 295 307
280 282 286 292 289 289 287 288 288 289 288 287 288 287 287 285 286 289 292 293 293 295 298 299 299 298 298 298 300 306 310 310 311 313 313 312 314 314 314 311 308 311 313 313 313 313 312 312 312 312 312 310 308 309
286 287 282 287 287 288 286 285 287 287 288 290 290 288 288 288 287 291 293 297 301 304 304 305 305 303 302 303 306 310 308 307 314 314 311 311 311 314 316 316 317 302 314 315 313 312 312 312 312 312 311 310 309 310
287 289 289 285 288 288 288 287 287 290 292 289 288 288 289 292 295 297 302 305 304 302 301 305 307 311 310 311 310 309 310 310 311 308 308 307 309 311 315 314 312 312 312 310 293 304 312 312 313 311 309 309 309 309
288 291 288 288 287 286 288 292 291 293 294 292 292 292 293 294 296 302 303 303 301 300 303 306 308 309 308 308 308 309 311 312 312 310 308 308 310 314 316 315 313 309 308 309 305 302 292 304 300 309 308 309 307 306
293 290 287 288 289 290 292 295 297 297 296 293 293 292 291 294 299 302 303 305 304 305 305 304 305 309 308 307 308 307 306 310 311 312 312 312 315 315 316 314 312 310 309 308 307 307 305 306 306 306 305 305 306 303
293 288 286 286 289 294 295 294 292 291 293 293 293 295 295 295 293 297 305 308 305 305 299 302 305 306 311 312 312 311 299 310 311 313 314 314 317 319 318 315 313 312 311 309 309 308 308 308 308 308 307 308 307 306
295 291 288 289 292 293 296 295 294 294 296 295 295 296 295 296 294 301 309 311 310 310 310 309 309 312 313 312 311 309 305 310 301 292 288 292 300 306 315 317 315 314 312 311 311 311 310 309 310 309 308 308 308 309
Wind_Speed
8 8 7 7 7 7 7 7 8 10 11 12 13 13 11 12 3 4 4 3 2 3 6 10 10 9 7 3 5 7 8 3 5 3 1 3 2 1 3 9 9 6 4 7 6 2 2 4 8 4 6 11 17 17
9 8 7 7 7 7 7 7 8 9 10 11 12 12 11 9 4 3 3 3 1 3 7 3 11 14 14 19 9 5 5 4 5 4 4 5 5 1 5 4 4 4 3 6 4 4 12 14 11 0 6 18 9 17
9 8 7 7 7 7 7 8 9 10 10 11 12 12 11 9 5 7 2 2 1 3 7 5 10 12 13 19 18 6 5 7 6 4 2 4 5 2 3 5 10 8 5 3 8 4 8 5 2 4 10 6 11 11
8 8 7 8 8 7 7 8 9 10 11 12 13 13 11 10 8 7 3 2 2 3 5 8 5 11 9 9 15 22 14 3 3 1 3 3 5 5 5 8 8 5 4 2 6 7 8 5 9 7 20 16 17 16
8 9 8 8 8 8 8 7 9 10 11 12 13 14 13 9 7 3 3 5 6 3 4 8 16 20 9 8 16 17 16 13 6 4 5 5 3 1 4 4 6 4 6 5 6 5 2 7 12 14 16 20 22 23
11 9 9 9 8 8 8 8 8 10 11 12 13 14 14 8 4 2 4 1 5 4 3 5 6 9 7 4 6 12 13 9 7 4 4 4 5 4 3 5 7 5 4 4 3 3 6 10 7 9 15 18 19 20
10 9 9 9 9 8 8 8 10 11 12 12 12 13 13 7 3 4 5 2 6 1 3 5 6 7 2 3 3 3 7 6 6 4 5 4 3 3 3 8 3 5 8 1 4 2 3 4 4 9 15 17 17 17
10 11 9 9 9 8 8 8 10 10 11 12 12 13 10 5 5 5 8 10 8 2 3 4 6 5 2 3 3 2 2 4 4 4 2 3 1 3 7 14 13 6 5 4 3 2 6 2 2 9 16 20 19 17
10 11 9 9 9 9 8 8 9 10 10 11 12 13 2 3 3 5 7 6 5 4 3 4 3 5 2 2 2 3 2 3 2 4 4 5 4 9 9 9 8 5 6 5 5 6 14 9 8 15 18 19 21 19
11 10 10 9 9 9 8 7 8 9 10 11 4 2 3 5 8 6 3 2 3 4 4 5 3 11 5 4 5 3 3 4 3 5 3 4 7 15 14 14 8 9 10 7 4 6 18 16 15 17 17 15 17 18
12 11 11 9 9 9 8 7 7 7 7 2 3 3 4 2 1 3 3 3 4 5 5 5 10 9 4 5 4 4 3 4 3 3 3 4 6 8 8 11 9 9 10 8 5 5 9 17 19 19 17 17 17 17
13 12 11 10 10 9 8 6 5 0 1 2 4 4 3 2 3 4 4 3 5 5 4 4 5 8 4 4 3 4 4 2 6 4 2 5 5 2 1 6 8 7 9 6 3 5 14 13 15 17 16 16 17 16
13 12 11 10 11 10 7 6 5 6 6 2 3 4 4 4 6 6 7 4 4 4 2 3 3 3 3 3 4 4 5 5 2 3 5 3 5 5 3 4 5 5 5 4 3 7 13 14 14 16 15 15 16 16
9 10 10 10 11 10 7 5 5 3 2 3 3 5 5 5 6 6 5 4 5 1 3 1 2 3 4 3 3 3 5 1 4 3 1 2 4 4 3 5 2 4 2 6 5 17 16 17 15 15 14 16 16 15
10 9 9 9 10 9 7 6 5 1 2 4 3 6 7 5 5 3 6 3 3 2 2 3 2 2 4 5 2 3 3 4 3 3 3 2 6 4 5 5 7 5 5 5 6 15 13 15 16 14 14 15 16 14
10 7 5 8 11 10 8 6 3 3 3 4 6 4 6 4 5 3 2 1 2 2 2 2 2 4 7 4 3 6 2 4 3 3 2 3 7 11 11 7 9 11 10 8 9 12 13 15 16 14 13 14 15 16
10 3 7 16 13 10 10 3 3 5 6 6 5 5 4 4 5 5 3 2 2 2 2 2 3 7 4 3 4 3 2 3 3 4 3 2 3 7 15 17 14 13 11 8 14 14 12 13 15 15 14 11 14 13
3 5 7 2 8 4 2 3 3 5 8 6 4 5 5 5 4 4 3 3 2 3 4 3 5 4 6 3 2 4 4 4 3 3 4 6 6 3 9 9 6 18 12 11 13 15 16 16 14 10 13 11 12 11
4 5 7 8 3 4 4 6 4 4 6 5 6 6 5 4 4 6 5 4 3 2 4 2 5 3 3 3 2 4 4 3 3 6 4 7 7 5 5 5 7 10 8 4 11 9 11 17 14 11 9 9 8 7
4 3 2 3 2 2 4 4 4 5 5 4 3 4 5 5 6 4 5 5 5 3 4 4 2 7 3 5 6 6 4 3 3 5 6 5 5 7 4 4 4 11 8 7 4 9 5 7 7 10 10 10 10 8
5 4 6 5 3 2 4 3 4 5 4 4 3 2 3 1 3 6 7 5 5 5 4 4 4 6 10 12 10 7 9 5 5 5 4 5 7 4 2 5 3 4 11 8 2 2 7 9 8 8 9 8 8 8
3 10 3 4 3 5 5 5 4 4 3 4 4 3 3 3 4 4 3 4 4 5 5 6 8 10 11 12 7 7 11 9 4 5 6 2 4 2 2 3 3 3 4 5 8 7 6 6 8 8 8 6 7 6
5 7 3 4 5 5 7 2 4 4 3 4 3 2 3 3 5 3 4 4 4 5 5 5 6 9 9 9 5 6 8 7 5 4 3 3 1 2 4 2 4 5 4 1 4 4 5 8 10 10 8 9 9 5
5 3 4 5 6 5 4 4 4 2 2 2 2 4 5 4 2 2 4 5 6 4 4 8 5 5 4 5 3 5 6 4 4 4 1 4 2 3 4 3 3 1 4 5 5 6 6 4 1 7 8 9 9 8
3 4 4 5 4 4 5 4 4 3 4 3 3 5 5 2 1 3 5 5 5 5 6 6 5 5 6 6 4 5 3 4 4 4 4 5 5 4 3 3 3 1 1 6 7 9 7 7 7 4 3 10 10 9
6 5 8 7 4 5 5 4 6 8 4 4 6 5 1 2 3 5 3 4 5 4 4 5 7 5 6 6 5 5 4 4 2 2 1 5 5 6 7 6 4 1 2 3 8 10 10 9 11 9 3 3 9 9
4 6 5 5 3 3 3 3 3 3 4 5 4 3 1 4 5 5 4 4 4 4 4 4 5 6 8 6 4 5 5 3 4 4 5 5 4 4 5 7 6 5 6 6 6 10 12 11 10 11 5 2 4 8
6 4 6 4 4 4 5 3 3 4 5 5 2 3 4 6 6 3 3 4 1 3 3 4 5 5 7 7 5 4 3 4 4 1 1 4 2 3 1 4 5 13 7 6 6 5 6 8 9 9 7 6 4 4
6 4 4 6 5 6 7 7 6 5 4 2 4 6 5 3 3 6 6 3 3 3 4 5 7 3 2 4 4 3 4 5 6 4 3 3 2 3 1 3 4 4 5 6 5 7 9 7 6 5 7 8 6 4
6 6 5 5 6 8 7 6 4 3 5 4 2 3 5 6 4 3 4 5 3 3 4 5 5 5 5 6 5 4 4 2 3 4 5 4 3 3 5 6 5 4 4 7 8 6 7 6 4 4 4 3 2 3
5 8 6 6 6 6 9 6 4 4 3 3 3 4 4 4 4 5 5 5 4 4 3 4 4 3 5 4 5 5 3 1 3 6 5 4 5 5 4 4 4 4 5 6 7 6 6 4 4 4 4 5 6 4
6 8 6 6 4 6 7 5 5 6 4 6 6 5 4 4 5 4 3 3 3 4 4 3 2 5 4 4 4 4 7 5 4 5 6 4 4 5 6 4 4 5 5 6 6 5 5 5 4 5 6 7 8 9
5 6 4 3 5 5 6 6 6 4 4 6 6 6 5 5 4 4 4 3 6 4 3 4 4 2 1 6 6 5 5 5 6 5 2 3 8 7 4 4 4 6 7 6 6 5 7 6 5 7 8 9 9 9
Wind_Direction
224 228 240 253 270 277 286 296 309 313 319 320 325 333 328 323 233 140 267 243 195 257 271 256 257 236 263 219 255 315 326 345 321 327 277 250 269 114 287 320 295 281 266 178 218 166 287 307 341 213 190 142 160 160
220 230 245 255 264 272 280 286 295 303 309 314 322 327 332 331 259 169 272 288 140 223 260 257 248 242 227 238 261 236 255 334 273 306 17 309 243 149 66 278 294 293 101 275 323 227 102 275 255 354 77 157 158 148
219 228 239 253 264 274 280 286 298 303 308 312 318 321 318 316 270 185 230 258 61 277 271 258 245 251 229 232 224 238 216 211 238 213 274 280 312 112 155 246 273 251 191 272 355 340 108 170 285 35 99 62 107 134
218 231 235 248 257 265 273 282 294 301 307 310 312 314 311 302 279 221 198 202 205 289 276 277 290 276 248 224 200 204 226 240 273 359 285 252 237 175 207 208 228 222 35 280 271 19 309 332 314 200 116 128 121 130
228 235 237 248 255 265 273 280 290 297 301 307 313 318 320 297 262 267 219 221 204 219 279 293 306 275 259 215 222 205 214 229 245 244 231 226 239 262 279 314 266 212 180 135 230 130 207 287 277 241 129 139 133 131
217 231 236 246 254 259 270 276 284 294 301 307 312 319 318 297 237 2 308 31 212 175 285 291 283 278 284 251 217 199 206 207 216 213 228 230 221 153 265 256 267 260 262 184 201 127 204 264 269 190 147 137 133 133
222 220 238 243 252 258 267 278 288 294 299 304 308 309 310 280 208 186 205 123 77 92 241 282 283 271 296 300 277 215 173 202 207 221 224 231 265 153 236 252 224 239 250 321 309 355 77 70 206 180 145 119 119 111
235 217 227 238 246 254 265 278 287 294 299 302 304 307 296 259 261 267 260 258 138 249 272 264 268 299 196 285 285 289 283 175 213 217 241 206 197 223 254 248 259 242 231 116 251 239 92 331 226 159 132 124 121 126
258 219 221 235 243 253 262 274 286 294 297 299 303 302 275 202 220 240 266 214 171 193 263 252 281 281 346 326 310 350 299 248 226 211 223 140 200 225 230 249 268 225 224 160 134 205 163 174 203 163 145 140 137 142
279 217 225 231 238 249 256 266 284 294 292 298 282 209 251 223 244 277 269 127 164 206 233 247 191 247 6 1 316 324 219 234 232 234 129 207 250 245 235 234 202 175 187 176 115 113 146 153 179 173 151 144 141 137
268 226 225 226 237 246 250 268 280 310 303 206 225 228 256 282 35 215 239 198 191 228 212 236 208 231 253 191 205 210 286 282 270 230 193 239 264 251 242 225 175 189 176 167 152 175 160 172 170 155 151 147 143 139
252 215 221 226 232 235 236 252 270 324 258 257 284 286 274 235 227 223 219 232 210 243 238 200 220 195 252 177 149 192 228 196 251 153 227 260 264 315 87 202 190 193 188 136 303 186 140 157 181 146 146 142 145 140
218 204 214 222 227 223 224 242 245 254 309 285 220 231 232 162 233 219 197 205 254 227 281 320 323 234 279 199 213 181 224 230 94 190 229 256 324 22 328 312 211 143 161 161 299 97 152 166 156 145 139 145 146 145
208 212 219 226 215 211 214 233 248 274 197 229 248 235 235 205 234 202 220 218 247 28 356 286 312 78 310 288 241 235 230 316 264 256 294 285 288 352 349 9 26 232 247 58 334 167 154 149 141 143 145 148 146 149
210 217 226 214 206 211 207 226 227 158 245 234 209 230 235 256 294 281 242 270 332 344 11 354 295 156 244 272 238 333 265 244 246 280 270 343 309 270 355 6 321 304 208 266 209 152 143 140 145 144 146 147 145 149
212 196 207 198 206 210 212 211 185 223 249 228 227 240 255 293 291 299 303 49 310 303 328 11 305 299 238 212 188 228 251 228 244 236 285 354 335 329 324 328 288 287 282 229 164 133 134 141 146 138 129 135 146 150
173 216 220 208 203 208 204 193 188 211 229 233 224 215 244 285 262 255 235 245 243 73 23 350 264 239 287 211 228 223 263 296 287 319 316 212 231 301 320 316 290 256 221 168 138 137 132 131 128 126 124 134 137 140
210 233 178 72 167 141 179 209 249 244 228 242 231 217 189 211 240 273 261 195 143 173 144 208 313 234 270 292 7 321 299 297 306 279 274 311 315 221 205 229 152 227 218 149 151 139 134 134 131 134 132 133 123 133
171 122 93 112 185 177 205 197 196 264 245 263 241 232 219 226 221 231 227 206 187 166 124 136 262 254 315 287 290 268 284 282 307 313 308 296 290 327 42 352 68 81 55 129 138 144 145 146 143 143 140 136 133 141
123 95 119 117 194 220 235 232 196 234 248 235 241 219 205 218 229 215 224 182 149 194 169 201 262 301 253 276 262 272 283 284 321 317 324 322 338 355 114 71 107 104 86 65 94 106 115 113 131 140 145 144 142 148
143 218 185 159 202 217 285 283 239 225 238 232 236 211 243 249 230 230 240 207 184 204 199 204 204 254 264 261 267 270 278 267 224 215 247 289 318 340 343 62 32 146 128 101 99 163 159 151 156 147 143 139 142 154
217 177 147 184 234 203 237 224 230 272 285 258 308 208 251 247 231 236 246 219 212 205 195 215 214 218 236 241 230 218 243 258 260 252 274 237 304 34 236 165 115 109 141 135 167 176 168 158 143 137 137 137 138 143
336 178 199 182 227 218 252 185 224 230 235 260 329 256 255 230 228 158 227 221 225 216 214 223 243 244 249 262 251 235 243 249 282 294 305 280 265 24 59 90 156 136 128 356 124 152 154 163 150 144 150 152 150 145
220 218 208 196 200 243 254 236 221 219 261 281 274 278 280 231 244 178 235 231 238 221 219 241 232 266 285 277 240 241 260 220 259 294 320 116 71 13 67 77 25 148 137 143 108 99 75 52 91 142 151 154 155 159
200 232 206 219 237 222 233 219 197 201 230 225 267 259 266 331 297 259 231 248 240 232 232 232 230 223 232 260 278 271 310 237 238 259 254 152 141 98 66 62 59 60 21 139 136 134 124 109 74 16 182 159 158 160
220 238 181 198 232 205 209 213 202 210 188 212 242 244 222 210 224 265 242 232 227 230 239 226 220 226 247 217 220 259 230 200 250 121 327 134 133 159 160 159 170 193 198 160 133 131 127 118 110 89 333 186 141 146
236 249 239 220 220 241 251 243 249 148 194 232 241 213 184 242 242 246 255 230 200 229 226 238 215 214 237 237 227 233 219 146 202 188 159 157 174 158 153 157 185 193 152 145 147 146 138 139 134 123 131 228 181 155
226 243 206 212 217 218 225 211 226 227 218 219 256 243 217 208 221 261 270 289 225 286 325 325 275 226 226 223 211 168 117 111 106 108 15 58 53 70 97 164 158 144 134 131 137 131 147 151 149 149 150 150 235 223
221 212 197 240 229 217 215 204 213 215 234 204 206 219 243 289 355 344 319 315 317 333 344 353 314 329 33 78 95 135 138 148 145 131 190 265 345 316 69 96 114 118 126 135 168 164 165 160 159 163 166 172 180 120
220 176 216 233 219 229 213 196 227 230 237 234 238 300 293 298 287 268 307 304 304 311 274 276 268 192 172 139 135 79 17 307 145 156 191 207 207 149 140 138 129 123 118 126 125 113 91 100 123 122 86 59 119 154
176 184 206 213 237 232 227 228 243 258 268 255 259 242 251 285 280 249 238 230 226 251 285 332 323 213 136 120 127 127 120 9 75 83 98 114 110 113 122 126 134 120 127 131 132 124 122 110 109 109 152 207 214 185
198 190 189 212 234 232 204 190 192 210 211 207 214 197 196 203 241 275 255 201 202 228 225 178 252 266 206 169 157 159 149 149 135 144 167 162 126 126 123 133 144 137 137 141 140 137 138 162 181 177 159 146 129 122
201 155 172 245 217 208 166 194 200 202 208 183 202 181 200 192 222 262 302 258 226 221 245 260 255 234 181 140 126 125 122 115 120 132 114 148 152 140 108 145 155 158 145 143 153 162 173 175 168 145 150 154 149 149